STARLINK-32852 (62824 NORAD) Tracking and Keplerian Element Data

This shows tracking and keplerian element data for the satellite.

Feedback or suggestion? Click here.




ElementValue
Catalog62824
NameSTARLINK-32852
Epoch Orbit276
Epoch Day35.25001157
Epoch Year2025
RAAN11.4532
Inclination53.1473
Eccentricity0.0001022
Argument of Perigee95.9197
Mean Anonmoly103.9266
Mean Motion15.86057316
Decay Rate-0.01099388
L11 62824U 25018U 25035.25001157 -.01099388 00000+0 -49338-2 0 9992
L22 62824 53.1473 11.4532 0001022 95.9197 103.9266 15.86057316 2762



Live tracking and technical data element details for STARLINK-32852 (NORAD 62824). STARLINK-32852 can be tracked NOW for your location showing map with azimuth and elevation plus other details from your city location.







IsCatalogInMostPopularTable: catalog: 62824, numindb: 201
Update: records affected: 1



GetName: 62824 STARLINK-32852

Hit Count: updated at: Mon, 17 Nov 2025 19:16:52 GMT